[[{"header":{"parameterUnit":"m.s-1","parameterCategory":1,"la1":30.2991,"la2":30.254,"lo1":-89.0895,"lo2":-89.0444,"dx":0.0017,"dy":0.0017,"nx":28,"ny":28,"refTime":"2022-11-19T09:00:00:Z","depth":0,"parameterNumber":2,"parameterNumberName":"U-component_of_WINDS"},"data":[0,0,0,0,0,0,0,0,0,0,0,0,0,0,0,0,0,0,0,0,0,0,0,0,0,0,0,0,0,0,0,0,0,0,0,0,0,0,0,0,0,0,0,0,0,0,0,0,0,0,0,0,0,0,0,0,0,0,-2.7212,-2.7212,0,-2.7244,-2.7245,-2.7245,-2.7191,-2.7189,-2.7187,-2.7185,-2.7218,-2.7221,-2.7223,0,0,0,0,0,0,0,0,0,0,0,0,0,-2.7102,-2.7104,-2.7212,-2.7212,-2.7213,-2.7244,-2.7245,-2.7245,-2.7191,-2.7189,-2.7186,-2.7184,-2.7217,-2.722,-2.7223,0,0,0,0,0,0,0,0,0,0,0,0,0,-2.7144,-2.7105,-2.7212,-2.719,-2.7188,-2.7244,-2.7245,-2.7245,-2.7191,-2.7189,-2.7186,-2.7183,-2.7216,-2.722,-2.7224,-2.7304,0,0,-2.7236,-2.7237,0,0,0,0,0,0,0,0,-2.7141,-2.7148,-2.7192,-2.7191,-2.7189,-2.7211,-2.7218,-2.7265,-2.7192,-2.719,-2.7185,-2.7182,-2.7218,-2.7221,-2.7234,-2.7305,-2.7306,-2.7236,-2.7238,-2.724,-2.7241,0,0,0,0,0,0,0,-2.7139,-2.7146,-2.7225,-2.7193,-2.7191,-2.7177,-2.718,-2.7227,-2.7219,-2.719,-2.7186,-2.7191,-2.7216,-2.723,-2.7234,-2.7307,-2.7236,-2.7239,-2.7242,-2.7243,-2.7445,-2.7448,0,0,0,0,0,0,-2.7139,-2.7144,-2.7224,-2.7226,-2.7158,-2.7182,-2.7185,-2.7207,-2.7218,-2.7218,-2.7193,-2.7188,-2.7225,-2.7229,-2.7235,-2.7329,-2.724,-2.7244,-2.7246,-2.7442,-2.7446,-2.7449,0,0,0,0,0,0,-2.7136,-2.7146,-2.7222,-2.7184,-2.7192,-2.7187,-2.7211,-2.7209,-2.7222,-2.7221,-2.7219,-2.7208,-2.7223,-2.7229,-2.7287,-2.733,-2.7245,-2.7249,-2.7439,-2.7443,-2.7447,-2.7519,0,0,0,0,0,0,-2.7133,-2.7146,-2.7176,-2.7185,-2.7195,-2.7275,-2.7214,-2.7211,-2.7229,-2.7223,-2.7235,-2.7234,-2.7221,-2.7281,-2.7291,-2.7333,-2.7252,-2.7435,-2.7441,-2.7446,-2.7512,-2.7525,-2.7536,0,0,0,0,0,-2.713,-2.7195,-2.7178,-2.7188,-2.7233,-2.7277,-2.7283,-2.7266,-2.7233,-2.7263,-2.7262,-2.7234,-2.7323,-2.7288,-2.7298,-2.7342,-2.7432,-2.7439,-2.7446,-2.7507,-2.7523,-2.7535,0,0,0,0,0,0,-2.7192,-2.7196,-2.7177,-2.7247,-2.7262,-2.7268,-2.7306,-2.7283,-2.7308,-2.7301,-2.728,-2.7283,-2.7345,-2.7349,-2.7309,-2.742,-2.7372,-2.7381,-2.7415,-2.743,-2.7441,-2.7439,-2.7255,0,0,0,0,0,-2.7213,-2.7249,-2.7251,-2.7312,-2.7321,-2.7312,-2.7331,-2.7317,-2.7331,-2.7338,-2.7341,-2.7356,-2.7387,-2.7408,-2.7437,-2.7512,-2.7514,-2.7548,-2.7559,-2.7569,-2.7578,-2.7618,-2.7633,-2.7471,-2.7471,-2.7471,0,0,-2.7259,-2.7265,-2.7289,-2.7325,-2.7335,-2.7372,-2.7318,-2.736,-2.7387,-2.7344,-2.7399,-2.7401,-2.7417,-2.7483,-2.7513,-2.7489,-2.7622,-2.7578,-2.7585,-2.7589,-2.7626,-2.7641,-2.7655,-2.7476,-2.7475,-2.7474,0,0,-2.7361,-2.7369,-2.7422,-2.7433,-2.7449,-2.7442,-2.7455,-2.7464,-2.7464,-2.7518,-2.7487,-2.7519,-2.7573,-2.7586,-2.7599,-2.7705,-2.768,-2.7715,-2.7776,-2.7815,-2.7828,-2.7839,-2.7878,-2.7892,-2.7723,-2.7723,-2.7723,0,-2.7415,-2.7471,-2.7451,-2.7496,-2.7512,-2.7474,-2.7527,-2.7539,-2.7563,-2.7575,-2.7548,-2.7615,-2.7623,-2.7692,-2.7718,-2.773,-2.7744,-2.7714,-2.7828,-2.7839,-2.7849,-2.7885,-2.79,-2.7727,-2.7727,-2.7726,-2.7726,0,-2.7537,-2.7576,-2.7616,-2.7641,-2.7662,-2.771,-2.7698,-2.7721,-2.7705,-2.7702,-2.7757,-2.7765,-2.7795,-2.781,-2.7795,-2.7877,-2.7861,-2.7831,-2.7783,-2.7869,-2.7903,-2.7916,-2.7733,-2.7732,-2.7731,-2.773,0,0,-2.7681,-2.7693,-2.7709,-2.7719,-2.7734,-2.7763,-2.7809,-2.7838,-2.7859,-2.7876,-2.7915,-2.7961,-2.7934,-2.7949,-2.7934,-2.7969,-2.8053,-2.7934,-2.7934,-2.7957,-2.8144,-2.8167,-2.8184,-2.8035,-2.8038,-2.804,-2.8143,0,-2.7783,-2.7863,-2.7847,-2.7925,-2.7961,-2.7925,-2.7965,-2.7978,-2.7975,-2.8005,-2.8002,-2.8036,-2.7996,-2.8005,-2.8037,-2.8036,-2.809,-2.8028,-2.8071,-2.8073,-2.807,-2.8201,-2.8226,-2.8323,-2.8156,-2.8158,-2.816,0,-2.7913,-2.7936,-2.8018,-2.8026,-2.804,-2.8077,-2.8102,-2.8131,-2.8144,-2.814,-2.8157,-2.8136,-2.8181,-2.8131,-2.8194,-2.8152,-2.8168,-2.817,-2.8173,-2.8178,-2.8123,-2.821,-2.8354,-2.8369,-2.818,-2.8179,-2.8177,0,-2.801,-2.8061,-2.8117,-2.8127,-2.8138,-2.8165,-2.817,-2.8181,-2.82,-2.8221,-2.8233,-2.826,-2.8275,-2.8296,-2.8282,-2.8247,-2.8347,-2.8296,-2.8345,-2.8346,-2.8369,-2.8368,-2.8518,-2.8378,-2.8378,-2.8377,-2.8377,0,-2.8127,-2.8179,-2.8161,-2.8196,-2.8252,-2.8233,-2.8289,-2.829,-2.83,-2.8334,-2.8304,-2.8336,-2.8316,-2.8347,-2.8336,-2.839,-2.8396,-2.8394,-2.8391,-2.8398,-2.8398,-2.8409,-2.8402,-2.8381,-2.838,-2.838,-2.8379,0,-2.8246,-2.8236,-2.8295,-2.83,-2.8302,-2.8344,-2.8348,-2.838,-2.8375,-2.8418,-2.8427,-2.8419,-2.8454,-2.8442,-2.8479,-2.8471,-2.854,-2.8527,-2.8536,-2.8533,-2.8583,-2.8579,-2.8747,-2.8768,-2.8613,-2.8615,-2.8616,0,-2.8322,-2.8361,-2.837,-2.8391,-2.8398,-2.8432,-2.8451,-2.8432,-2.8453,-2.8471,-2.85,-2.8532,-2.8557,-2.8613,-2.8611,-2.8638,-2.8627,-2.8684,-2.8631,-2.8636,-2.8629,-2.8627,-2.8631,-2.8695,-2.8697,-2.8698,-2.8699,0,-2.8457,-2.845,-2.8478,-2.8505,-2.8528,-2.8548,-2.8565,-2.8583,-2.8566,-2.859,-2.8625,-2.8644,-2.8682,-2.8714,-2.8738,-2.8744,-2.8719,-2.8716,-2.8729,-2.8736,-2.874,-2.874,-2.8566,-2.8712,-2.8711,-2.871,-2.8709,-2.8709,-2.8557,-2.859,-2.8602,-2.8634,-2.8645,-2.8662,-2.8692,-2.8691,-2.8719,-2.8749,-2.8736,-2.8776,-2.8788,-2.8819,-2.8827,-2.8858,-2.8836,-2.8855,-2.886,-2.8865,-2.8872,-2.8734,-2.8863,-2.8862,-2.8862,-2.8862,-2.8861,0,-2.8692,-2.8698,-2.8727,-2.8752,-2.8778,-2.8751,-2.8769,-2.8792,-2.8828,-2.8841,-2.8866,-2.8905,-2.8936,-2.8936,-2.8964,-2.8989,-2.8978,-2.8997,-2.8996,-2.8997,-2.889,-2.8876,-2.9005,-2.9005,-2.9005,-2.9005,-2.9005,-2.9005,-2.8765,-2.882,-2.8814,-2.8874,-2.8879,-2.8918,-2.893,-2.8945,-2.8956,-2.9002,-2.9027,-2.9026,-2.9034,-2.9063,-2.9089,-2.9088,-2.9101,-2.9124,-2.9119,-2.9019,-2.9005,-2.8991,-2.8978,-2.9127,-2.9127,-2.9224,-2.9225,-2.9225]},{"header":{"parameterUnit":"m.s-1","parameterCategory":1,"la1":30.2991,"la2":30.254,"lo1":-89.0895,"lo2":-89.0444,"dx":0.0017,"dy":0.0017,"nx":28,"ny":28,"refTime":"2022-11-19T09:00:00:Z","depth":0,"parameterNumber":3,"parameterNumberName":"V-component_of_WINDS"},"data":[0,0,0,0,0,0,0,0,0,0,0,0,0,0,0,0,0,0,0,0,0,0,0,0,0,0,0,0,0,0,0,0,0,0,0,0,0,0,0,0,0,0,0,0,0,0,0,0,0,0,0,0,0,0,0,0,0,0,-5.4791,-5.4792,0,-5.4845,-5.4845,-5.4846,-5.4784,-5.4781,-5.4779,-5.4777,-5.4828,-5.4832,-5.4835,0,0,0,0,0,0,0,0,0,0,0,0,0,-5.463,-5.4633,-5.4791,-5.4792,-5.4792,-5.4845,-5.4845,-5.4846,-5.4784,-5.4781,-5.4778,-5.4776,-5.4827,-5.4831,-5.4835,0,0,0,0,0,0,0,0,0,0,0,0,0,-5.4694,-5.4635,-5.4791,-5.4768,-5.4766,-5.4845,-5.4845,-5.4846,-5.4785,-5.4781,-5.4778,-5.4775,-5.4826,-5.4831,-5.4836,-5.4938,0,0,-5.4852,-5.4854,0,0,0,0,0,0,0,0,-5.469,-5.4699,-5.4771,-5.477,-5.4768,-5.4804,-5.4807,-5.4877,-5.4786,-5.4778,-5.4777,-5.4773,-5.4823,-5.4828,-5.4846,-5.4941,-5.4943,-5.4853,-5.4856,-5.4858,-5.486,0,0,0,0,0,0,0,-5.4686,-5.4697,-5.4812,-5.4772,-5.477,-5.4753,-5.4758,-5.482,-5.4819,-5.4778,-5.4774,-5.4781,-5.4821,-5.4841,-5.4846,-5.4944,-5.4852,-5.4857,-5.486,-5.4862,-5.5124,-5.5128,0,0,0,0,0,0,-5.4685,-5.4694,-5.481,-5.4814,-5.472,-5.4759,-5.4765,-5.4796,-5.4818,-5.4818,-5.4784,-5.4778,-5.4833,-5.484,-5.4848,-5.4969,-5.4858,-5.4863,-5.4866,-5.5121,-5.5125,-5.5129,0,0,0,0,0,0,-5.4681,-5.4696,-5.4808,-5.4753,-5.4766,-5.4766,-5.4801,-5.4799,-5.4818,-5.4823,-5.4822,-5.4804,-5.4831,-5.484,-5.4916,-5.497,-5.4865,-5.487,-5.5116,-5.5122,-5.5127,-5.5212,0,0,0,0,0,0,-5.4677,-5.4695,-5.4735,-5.4754,-5.4769,-5.4877,-5.4804,-5.4802,-5.4828,-5.4821,-5.4842,-5.4842,-5.4829,-5.4909,-5.4922,-5.4975,-5.4874,-5.5111,-5.5119,-5.5125,-5.5204,-5.522,-5.5233,0,0,0,0,0,-5.4671,-5.4756,-5.4737,-5.4752,-5.4819,-5.4881,-5.4889,-5.4874,-5.4833,-5.4872,-5.4875,-5.4841,-5.4962,-5.4917,-5.4931,-5.4987,-5.5108,-5.5117,-5.5125,-5.5198,-5.5217,-5.5232,0,0,0,0,0,0,-5.4741,-5.4758,-5.4737,-5.4831,-5.4855,-5.487,-5.4919,-5.4894,-5.493,-5.4921,-5.4899,-5.4905,-5.4985,-5.4993,-5.4943,-5.5087,-5.5028,-5.504,-5.5078,-5.5096,-5.511,-5.5107,-5.4879,0,0,0,0,0,-5.4768,-5.4818,-5.4829,-5.491,-5.4923,-5.492,-5.4946,-5.4932,-5.4956,-5.4965,-5.4973,-5.4997,-5.5039,-5.5068,-5.5108,-5.5205,-5.5208,-5.525,-5.5264,-5.5276,-5.5286,-5.5337,-5.5356,-5.5157,-5.5157,-5.5157,0,0,-5.4823,-5.4838,-5.4871,-5.4925,-5.4942,-5.4993,-5.4929,-5.4985,-5.5022,-5.4973,-5.5046,-5.5053,-5.5077,-5.5164,-5.5202,-5.5173,-5.5342,-5.5287,-5.5296,-5.53,-5.5348,-5.5367,-5.5384,-5.5163,-5.5162,-5.5161,0,0,-5.4949,-5.4966,-5.5035,-5.5054,-5.5081,-5.5078,-5.5095,-5.5114,-5.5117,-5.519,-5.5154,-5.5197,-5.5271,-5.529,-5.5309,-5.5442,-5.5412,-5.5456,-5.553,-5.558,-5.5596,-5.561,-5.5657,-5.5674,-5.5466,-5.5466,-5.5466,0,-5.5013,-5.509,-5.5074,-5.5133,-5.5158,-5.5117,-5.5186,-5.5204,-5.5243,-5.526,-5.5226,-5.5319,-5.5333,-5.5423,-5.5456,-5.5473,-5.549,-5.5453,-5.5595,-5.5609,-5.5621,-5.5666,-5.5684,-5.5471,-5.5471,-5.547,-5.547,0,-5.5168,-5.5222,-5.5274,-5.5314,-5.5344,-5.5408,-5.5399,-5.5432,-5.5415,-5.5415,-5.5489,-5.5503,-5.5545,-5.5566,-5.555,-5.5654,-5.5634,-5.5599,-5.5539,-5.5646,-5.5687,-5.5704,-5.5478,-5.5477,-5.5475,-5.5474,0,0,-5.534,-5.537,-5.5389,-5.5406,-5.5433,-5.5474,-5.5535,-5.5577,-5.5605,-5.5632,-5.5683,-5.5747,-5.5714,-5.5736,-5.5722,-5.5766,-5.5869,-5.5724,-5.5724,-5.575,-5.5984,-5.601,-5.6031,-5.5849,-5.5853,-5.5855,-5.5982,0,-5.5466,-5.5575,-5.5561,-5.5664,-5.5713,-5.5675,-5.5728,-5.575,-5.5751,-5.5791,-5.5792,-5.5838,-5.5791,-5.5804,-5.5846,-5.5848,-5.5916,-5.5838,-5.5895,-5.5897,-5.589,-5.6052,-5.6081,-5.6199,-5.5998,-5.6,-5.6002,0,-5.5628,-5.5663,-5.5772,-5.5791,-5.581,-5.5859,-5.5896,-5.5936,-5.5959,-5.5956,-5.5981,-5.5959,-5.6019,-5.5959,-5.604,-5.5988,-5.601,-5.6015,-5.6019,-5.6023,-5.5956,-5.6061,-5.6237,-5.6255,-5.6028,-5.6026,-5.6024,0,-5.5742,-5.5816,-5.5891,-5.5906,-5.5931,-5.5966,-5.5977,-5.5997,-5.6023,-5.6055,-5.6071,-5.6109,-5.613,-5.616,-5.6148,-5.6105,-5.6232,-5.617,-5.6231,-5.6231,-5.6259,-5.6257,-5.6441,-5.6274,-5.6273,-5.6273,-5.6273,0,-5.5885,-5.5953,-5.5942,-5.5988,-5.6062,-5.6046,-5.6119,-5.6125,-5.6143,-5.6188,-5.6157,-5.6199,-5.6181,-5.6222,-5.6213,-5.6282,-5.6291,-5.629,-5.6287,-5.6293,-5.6293,-5.6307,-5.6299,-5.6278,-5.6277,-5.6276,-5.6275,0,-5.6025,-5.6021,-5.61,-5.6116,-5.6122,-5.6176,-5.6189,-5.6231,-5.623,-5.6288,-5.63,-5.6298,-5.6345,-5.6336,-5.6387,-5.638,-5.6467,-5.6453,-5.646,-5.6456,-5.6517,-5.6511,-5.6716,-5.6741,-5.6558,-5.656,-5.6561,0,-5.6116,-5.6168,-5.619,-5.6219,-5.6233,-5.628,-5.6307,-5.6291,-5.632,-5.635,-5.6389,-5.6433,-5.6467,-5.6543,-5.6545,-5.6584,-5.6571,-5.664,-5.6577,-5.6581,-5.6572,-5.6569,-5.6573,-5.6653,-5.6655,-5.6656,-5.6658,0,-5.6279,-5.6274,-5.6315,-5.6355,-5.6388,-5.6418,-5.6445,-5.647,-5.6457,-5.6491,-5.6539,-5.6566,-5.6619,-5.6662,-5.6698,-5.6708,-5.6681,-5.6678,-5.6694,-5.67,-5.6702,-5.6702,-5.6494,-5.6673,-5.6672,-5.667,-5.667,-5.6669,-5.6397,-5.6441,-5.6464,-5.651,-5.6529,-5.6555,-5.6595,-5.6599,-5.664,-5.6682,-5.667,-5.6725,-5.6745,-5.6791,-5.6805,-5.6846,-5.682,-5.6843,-5.6849,-5.6855,-5.6862,-5.6696,-5.6853,-5.6852,-5.6852,-5.6851,-5.6851,0,-5.6557,-5.657,-5.6613,-5.6652,-5.6688,-5.666,-5.6689,-5.672,-5.6769,-5.6791,-5.6826,-5.6881,-5.6923,-5.6929,-5.6968,-5.7,-5.6989,-5.7011,-5.7008,-5.7011,-5.6884,-5.6866,-5.702,-5.702,-5.702,-5.702,-5.702,-5.702,-5.6645,-5.6718,-5.6716,-5.6797,-5.6808,-5.6863,-5.6881,-5.6905,-5.6922,-5.6985,-5.7021,-5.7024,-5.7039,-5.708,-5.7117,-5.7117,-5.7133,-5.7161,-5.7156,-5.7037,-5.702,-5.7004,-5.6987,-5.7164,-5.7164,-5.728,-5.7281,-5.7282]}]]